User: anonymous   Login
Location: Okie-Tex Star Party
(36.8978°N, 102.9520°W)
Time: 16:16:25
(UTC-05:00)
Language:

Hamsat - Orbit

View from above orbital plane
View from above orbital plane
View from above satellite
View from above satellite

Ground track
Ground track

The orbit data is extracted from the following two-line orbital elements,

1 28650U 05017B   16122.53935475  .00000843  00000-0  96541-4 0  9991
2 28650  97.6051 106.2469 0025142  56.0934 304.2669 14.88226729594939
Epoch (UTC): 01 May 2016 12:56:40
Eccentricity: 0.0025142
inclination: 97.6051°
perigee height: 586 km
apogee height: 621 km
right ascension of ascending node: 106.2469°
argument of perigee: 56.0934°
revolutions per day: 14.88226729
mean anomaly at epoch: 304.2669°
orbit number at epoch: 59493

The dashed part of the orbit path shows where the satellite is in the earth's shadow,  

DLR